Volver al catálogo

STARLINK-34602

ActivoComunicacionesVLEO
NORAD 65333·PAYLOAD·🇺🇸 United States

Lanzado Aug 27, 2025 desde Cape Canaveral Space Force Station

Loading…

Próximos Pases (próximas 24 horas)

TLE

ActualizadoSource: CelesTrak SupGP

Época: Sep 14, 2026, 23:00 UTC

1 65333C 25189L   26257.95881944  .00019445  00000+0  62540-3 0  2574
2 65333  53.1597  46.1380 0001137  79.1545 343.6804 15.31687555    12

Sigue STARLINK-34602 en tiempo real con AllMySat

Download on the App Store